Date String (YYYY-MM-DD hh:mm:ss) UTC,Instrument flags,absolute air pressure of the measurement (hPa),sample flow rate (lpm),inlet stack bypass flow (lpm),air temperature of the measurement (°C),ambient temperature measured by the external sensor (°C),aerosol sample conditioner tube jacket temperature (°C),OPC LED temperature (°C),internal box temperature (°C),relative humidity of the measurement (%),span deviation,mass concentration of particles derived from Lorenz-Mie calculation of OPC scattering (μg/m³),mass concentration of particles derived from Lorenz-Mie calculation of OPC scattering (μg/m³),mass concentration of particles derived from Lorenz-Mie calculation of OPC scattering (μg/m³)
DateTimeUTC,F1_M11,P_M11,Q1_M11,Q2_M11,T1_M11,T2_M11,T3_M11,T4_M11,T5_M11,U1_M11,ZSPAN_M11,X0_M11,X2_M11,X1_M11
2023-08-09 14:00:00,SystemResetWarning,0831.5,4.99,000.00,029.7,028.3,000.0,038.3,031.3,26.7,0000.0,0009.26,0004.94,0004.43
2023-08-09 14:01:00,SystemResetWarning,0831.5,5.00,000.00,029.7,028.4,000.0,038.3,031.3,26.9,0000.0,0009.15,0004.93,0004.42
2023-08-09 14:02:00,SystemResetWarning,0831.5,5.00,000.00,029.7,028.5,000.0,038.3,031.4,26.4,0000.0,0008.96,0004.93,0004.42
2023-08-09 14:03:00,SystemResetWarning,0831.5,5.00,000.00,029.8,028.5,000.0,038.4,031.4,26.1,0000.0,0008.76,0004.90,0004.41
2023-08-09 14:04:00,SystemResetWarning,0831.5,5.00,000.00,029.8,028.6,000.0,038.4,031.4,26.5,0000.0,0009.62,0004.91,0004.40
2023-08-09 14:05:00,SystemResetWarning,0831.5,5.00,000.00,029.8,028.6,000.0,038.4,031.4,26.0,0000.0,0009.64,0004.88,0004.39
2023-08-09 14:06:00,SystemResetWarning,0831.5,5.01,000.00,029.8,028.6,000.0,038.4,031.5,26.2,0000.0,0009.49,0004.92,0004.37
2023-08-09 14:07:00,SystemResetWarning,0831.5,5.00,000.00,029.9,028.7,000.0,038.4,031.5,26.6,0000.0,0009.52,0004.92,0004.36
2023-08-09 14:08:00,SystemResetWarning,0831.5,5.01,000.00,029.9,028.7,000.0,038.4,031.5,26.7,0000.0,0009.55,0004.90,0004.35
2023-08-09 14:09:00,SystemResetWarning,0831.5,5.00,000.00,029.9,028.8,000.0,038.4,031.5,26.1,0000.0,0009.99,0004.92,0004.34
2023-08-09 14:10:00,SystemResetWarning,0831.5,5.00,000.00,029.9,028.8,000.0,038.5,031.6,26.0,0000.0,0010.24,0004.92,0004.34
2023-08-09 14:11:00,SystemResetWarning,0831.5,5.00,000.00,029.9,028.8,000.0,038.5,031.6,26.0,0000.0,0010.41,0004.98,0004.34
2023-08-09 14:12:00,SystemResetWarning,0831.5,4.98,000.00,030.0,027.9,000.0,038.4,031.5,25.9,0000.0,0010.55,0005.00,0004.34
2023-08-09 14:13:00,SystemResetWarning,0831.5,5.01,000.00,029.9,026.0,000.0,038.3,031.1,25.9,0000.0,0011.10,0005.00,0004.34
2023-08-09 14:14:00,SystemResetWarning,0831.5,5.00,000.00,029.8,025.3,000.0,038.2,031.0,26.2,0000.0,0011.52,0004.98,0004.33
2023-08-09 14:15:00,SystemResetWarning,0831.4,5.01,000.00,029.7,025.5,000.0,038.2,030.8,26.4,0000.0,0011.17,0004.99,0004.34
2023-08-09 14:16:00,SystemResetWarning,0831.5,5.01,000.00,029.6,025.8,000.0,038.2,030.8,26.4,0000.0,0011.39,0005.03,0004.33
2023-08-09 14:17:00,SystemResetWarning,0831.5,5.00,000.00,029.5,026.2,000.0,038.2,030.9,26.9,0000.0,0011.71,0005.07,0004.33
2023-08-09 14:18:00,SystemResetWarning,0831.5,4.99,000.00,029.5,026.6,000.0,038.2,030.9,26.5,0000.0,0012.02,0005.08,0004.33
2023-08-09 14:19:00,SystemResetWarning,0831.5,5.00,000.00,029.5,027.0,000.0,038.2,031.0,26.2,0000.0,0011.80,0005.08,0004.33
2023-08-09 14:20:00,SystemResetWarning,0831.5,5.00,000.00,029.5,027.3,000.0,038.2,031.0,26.3,0000.0,0011.65,0005.06,0004.32
2023-08-09 14:21:00,SystemResetWarning,0831.5,5.01,000.00,029.5,027.5,000.0,038.2,031.1,26.2,0000.0,0011.45,0005.09,0004.33
2023-08-09 14:22:00,SystemResetWarning,0831.5,5.00,000.00,029.5,027.7,000.0,038.2,031.1,26.2,0000.0,0011.26,0005.05,0004.33
2023-08-09 14:23:00,SystemResetWarning,0831.6,5.00,000.00,029.6,027.9,000.0,038.2,031.2,26.4,0000.0,0011.23,0005.06,0004.33
2023-08-09 14:24:00,SystemResetWarning,0831.6,5.00,000.00,029.6,028.0,000.0,038.2,031.2,26.5,0000.0,0010.68,0005.05,0004.32
2023-08-09 14:25:00,SystemResetWarning,0831.6,5.01,000.00,029.6,028.1,000.0,038.2,031.3,26.7,0000.0,0010.31,0005.05,0004.30
2023-08-09 14:26:00,SystemResetWarning,0831.6,5.00,000.00,029.6,028.3,000.0,038.2,031.3,26.5,0000.0,0009.56,0005.02,0004.30
2023-08-09 14:27:00,SystemResetWarning,0831.6,5.00,000.00,029.7,028.3,000.0,038.2,031.3,26.8,0000.0,0009.28,0004.97,0004.31
2023-08-09 14:28:00,SystemResetWarning,0831.6,4.99,000.00,029.7,028.4,000.0,038.3,031.3,26.3,0000.0,0009.09,0004.93,0004.30
2023-08-09 14:29:00,SystemResetWarning,0831.6,4.99,000.00,029.7,028.5,000.0,038.3,031.4,26.4,0000.0,0008.76,0004.89,0004.30
2023-08-09 14:30:00,SystemResetWarning,0831.6,5.00,000.00,029.7,028.5,000.0,038.3,031.4,26.3,0000.0,0009.62,0004.90,0004.29
2023-08-09 14:31:00,SystemResetWarning,0831.6,5.00,000.00,029.8,028.6,000.0,038.3,031.4,26.1,0000.0,0010.31,0004.90,0004.28
2023-08-09 14:32:00,SystemResetWarning,0831.6,5.00,000.00,029.8,028.6,000.0,038.3,031.5,26.4,0000.0,0010.19,0004.87,0004.27
2023-08-09 14:33:00,SystemResetWarning,0831.6,5.00,000.00,029.8,028.7,000.0,038.4,031.5,26.1,0000.0,0010.33,0004.85,0004.26
2023-08-09 14:34:00,SystemResetWarning,0831.6,5.01,000.00,029.8,028.7,000.0,038.4,031.5,26.3,0000.0,0010.42,0004.83,0004.26
2023-08-09 14:35:00,SystemResetWarning,0831.6,5.00,000.00,029.9,028.8,000.0,038.4,031.5,26.2,0000.0,0010.40,0004.83,0004.26
2023-08-09 14:36:00,SystemResetWarning,0831.6,5.00,000.00,029.9,028.6,000.0,038.4,031.5,25.6,0000.0,0010.84,0004.82,0004.27
2023-08-09 14:37:00,SystemResetWarning,0831.6,4.98,000.00,029.9,026.9,000.0,038.3,031.3,26.0,0000.0,0011.28,0004.87,0004.26
2023-08-09 14:38:00,SystemResetWarning,0831.6,5.02,000.00,029.8,025.5,000.0,038.1,031.0,26.1,0000.0,0011.84,0004.91,0004.25
2023-08-09 14:39:00,SystemResetWarning,0831.6,5.01,000.00,029.7,025.3,000.0,038.1,030.9,26.4,0000.0,0011.74,0004.89,0004.25
2023-08-09 14:40:00,SystemResetWarning,0831.6,4.99,000.00,029.6,025.6,000.0,038.1,030.8,26.6,0000.0,0011.51,0004.89,0004.26
2023-08-09 14:41:00,SystemResetWarning,0831.6,5.00,000.00,029.5,026.0,000.0,038.1,030.8,26.7,0000.0,0010.64,0004.85,0004.26
2023-08-09 14:42:00,SystemResetWarning,0831.6,5.00,000.00,029.5,026.4,000.0,038.1,030.9,26.6,0000.0,0009.87,0004.86,0004.27
2023-08-09 14:43:00,SystemResetWarning,0831.6,4.99,000.00,029.5,026.8,000.0,038.2,031.0,26.8,0000.0,0009.76,0004.86,0004.29
2023-08-09 14:44:00,SystemResetWarning,0831.6,5.00,000.00,029.5,027.1,000.0,038.2,031.0,26.7,0000.0,0009.65,0004.89,0004.30
2023-08-09 14:45:00,SystemResetWarning,0831.6,5.01,000.00,029.5,027.4,000.0,038.2,031.1,26.6,0000.0,0010.28,0004.91,0004.32
2023-08-09 14:46:00,SystemResetWarning,0831.6,5.01,000.00,029.5,027.6,000.0,038.2,031.1,26.9,0000.0,0010.40,0004.96,0004.34
2023-08-09 14:47:00,SystemResetWarning,0831.6,4.99,000.00,029.5,027.8,000.0,038.2,031.2,27.1,0000.0,0010.36,0004.96,0004.35
2023-08-09 14:48:00,SystemResetWarning,0831.6,5.00,000.00,029.6,028.0,000.0,038.2,031.2,26.9,0000.0,0009.83,0004.91,0004.35
2023-08-09 14:49:00,SystemResetWarning,0831.6,5.00,000.00,029.6,028.1,000.0,038.2,031.2,27.2,0000.0,0009.19,0004.87,0004.36
2023-08-09 14:50:00,SystemResetWarning,0831.6,5.00,000.00,029.6,028.3,000.0,038.2,031.3,27.1,0000.0,0009.23,0004.86,0004.36
2023-08-09 14:51:00,SystemResetWarning,0831.7,5.00,000.00,029.6,028.4,000.0,038.2,031.3,27.0,0000.0,0009.67,0004.89,0004.36
2023-08-09 14:52:00,SystemResetWarning,0831.7,5.00,000.00,029.7,028.4,000.0,038.2,031.4,27.3,0000.0,0009.89,0004.96,0004.36
2023-08-09 14:53:00,SystemResetWarning,0831.7,5.00,000.00,029.7,028.5,000.0,038.2,031.4,27.0,0000.0,0010.09,0004.96,0004.36
2023-08-09 14:54:00,SystemResetWarning,0831.7,5.00,000.00,029.7,028.6,000.0,038.3,031.4,26.6,0000.0,0010.81,0004.98,0004.37
2023-08-09 14:55:00,SystemResetWarning,0831.7,5.00,000.00,029.8,028.6,000.0,038.3,031.5,27.2,0000.0,0011.11,0004.95,0004.35
2023-08-09 14:56:00,SystemResetWarning,0831.7,4.99,000.00,029.8,028.7,000.0,038.3,031.5,26.9,0000.0,0011.10,0004.92,0004.33
2023-08-09 14:57:00,SystemResetWarning,0831.7,4.99,000.00,029.8,028.3,000.0,038.3,031.5,26.5,0000.0,0011.10,0004.87,0004.32
2023-08-09 14:58:00,SystemResetWarning,0831.6,5.00,000.00,029.8,026.5,000.0,038.1,031.2,26.8,0000.0,0010.98,0004.88,0004.30
2023-08-09 14:59:00,SystemResetWarning,0831.5,5.00,000.00,029.7,025.3,000.0,038.0,030.9,27.1,0000.0,0011.03,0004.88,0004.30
